sat.trackr.live / text

‹ back to catalog

HUNITY

NORAD 66670 · 2025-276E

PAYLOAD ACTIVE UNKNOWN

§ Identity

Operator
Country
HUN
Launch date
2025-11-28
Launch site
AFWTR
Launch vehicle
Mass (kg)
RCS (m²)

External: N2YO · Heavens-Above · Gunter

§ Orbital elements

Epoch: 2026-05-25T02:46:54.050304Z

Period
94.39 min
Inclination
97.4080°
Eccentricity
0.0008162
Mean motion
15.25659254 rev/d
Perigee alt
483.2 km
Apogee alt
494.4 km
Semi-major
6,866.9 km
B*
9.9749e-4
RAAN
219.4820°
Arg perigee
100.5899°
Mean anomaly
259.6259°
Rev number
2,696

§ Raw data

HUNITY1 66670U 25276E   26145.11590336  .00025400  00000+0  99749-3 0  99942 66670  97.4080 219.4820 0008162 100.5899 259.6259 15.25659254 26965

JSON: /api/v1/satellites/66670 · /tle

For live sub-satellite position, see the globe view (requires WebGL).

§ Visibility from observer

Set your observer location to see the next 7 days of passes ≥ 10°. The values pass through the URL so the page stays shareable.

No JS? Fill the form by hand. The geolocation button needs JavaScript.

§ Radio — SatNOGS DB

ModeDescriptionDownlinkUplink
GMSK 12k5 GMSK TLM 437.390 MHz

1 transmitter · refreshed weekly from db.satnogs.org